DW6386 Weather Reports


Display with metric or nautical units.
time (UTC)temp
F
wind
direction
speed
MPH
gust
MPH
rain 1hr
in
rain 24hr
in
rain mn
in
humidity
%
barometer
mb
20260508113049 40 107 0.0 0.0 0.00 0.00 0.00 95 1016.7
20260508111547 40 107 0.0 0.0 0.00 0.00 0.00 95 1016.5
20260508110044 39 107 0.0 0.0 0.00 0.00 0.00 94 1016.2
20260508104543 40 107 0.0 0.0 0.00 0.00 0.00 94 1016.0
20260508103039 40 107 0.0 0.0 0.00 0.00 0.00 93 1015.8
20260508101539 40 107 0.0 0.0 0.00 0.00 0.00 93 1015.5
20260508100033 41 107 0.0 0.0 0.00 0.01 0.00 93 1015.5
20260508094532 41 107 0.0 0.0 0.00 0.01 0.00 93 1015.5
20260508093030 42 107 0.0 0.0 0.00 0.01 0.00 93 1015.3
20260508091527 42 107 0.0 0.0 0.00 0.01 0.00 92 1015.3
20260508090043 43 107 0.0 0.0 0.00 0.02 0.00 92 1015.2
20260508084525 43 107 0.0 0.0 0.00 0.02 0.00 91 1015.2
20260508083024 43 107 0.0 0.0 0.00 0.02 0.00 89 1015.3
20260508081524 43 107 0.0 0.0 0.00 0.02 0.00 90 1015.1
20260508080023 43 107 0.0 0.0 0.00 0.03 0.00 90 1015.2
20260508074524 43 107 0.0 0.0 0.00 0.03 0.00 89 1015.1
20260508073019 44 107 0.0 0.0 0.00 0.03 0.00 89 1015.1
20260508071518 44 107 0.0 0.0 0.00 0.03 0.00 89 1015.2
20260508070016 44 107 0.0 0.0 0.00 0.03 0.00 89 1015.3
20260508064514 45 107 0.0 0.0 0.00 0.03 0.00 88 1015.3
20260508063013 45 107 0.0 0.0 0.00 0.03 0.00 87 1015.2
20260508061512 46 107 0.0 0.0 0.00 0.03 0.00 88 1015.2
20260508060013 46 107 0.0 0.0 0.00 0.03 0.00 88 1015.3
20260508054511 46 107 0.0 0.0 0.00 0.03 0.00 89 1015.4
20260508053013 46 107 0.0 0.0 0.00 0.03 0.00 89 1015.4
20260508051510 47 106 0.0 0.0 0.00 0.03 0.00 89 1015.3
20260508050006 45 106 0.0 0.0 0.00 0.08 0.00 86 1015.5
20260508044505 46 106 0.0 0.0 0.00 0.08 0.00 85 1015.3
20260508043100 47 106 0.0 0.0 0.00 0.08 0.00 84 1015.2
20260508041557 47 106 0.0 0.0 0.00 0.08 0.00 83 1015.1
20260508040057 49 106 0.0 0.0 0.00 0.08 0.08 81 1014.8
20260508034554 49 106 0.0 0.0 0.00 0.08 0.08 81 1014.9
20260508033057 49 106 0.0 0.0 0.00 0.08 0.08 81 1014.8
20260508031555 50 106 0.0 0.0 0.00 0.08 0.08 82 1014.9
20260508030054 50 106 0.0 0.0 0.00 0.13 0.08 80 1014.8
20260508024611 51 106 0.0 0.0 0.00 0.13 0.08 78 1014.6
20260508023041 51 143 0.0 0.0 0.00 0.13 0.08 79 1014.4
20260508021543 51 143 0.0 0.0 0.00 0.13 0.08 78 1014.3
20260508020046 52 143 0.0 0.0 0.00 0.13 0.08 78 1014.3
20260508014538 52 165 0.0 0.0 0.00 0.13 0.08 79 1013.9
20260508013034 53 165 0.0 0.0 0.00 0.13 0.08 79 1013.7
20260508011533 53 167 0.0 0.0 0.00 0.13 0.08 79 1013.5
20260508010030 54 168 0.0 0.0 0.00 0.13 0.08 75 1013.3
20260508004539 56 167 0.0 0.0 0.00 0.13 0.08 72 1013.0
20260508003026 57 167 0.0 0.0 0.00 0.13 0.08 69 1012.9
20260508001533 58 168 0.0 0.0 0.00 0.13 0.08 69 1012.6
20260508000024 59 168 0.0 0.0 0.00 0.16 0.08 65 1012.4
20260507234528 60 168 0.0 0.0 0.00 0.16 0.08 64 1012.2
20260507233024 62 129 0.0 5.0 0.00 0.16 0.08 65 1012.1
20260507231524 63 110 0.0 0.0 0.00 0.16 0.08 63 1012.2
20260507230022 63 115 0.0 3.0 0.00 0.25 0.08 59 1012.3
20260507224523 64 139 0.0 2.0 0.00 0.25 0.08 57 1012.2
20260507223022 66 212 0.0 2.0 0.00 0.25 0.08 54 1012.1
20260507221521 65 136 0.0 2.0 0.00 0.25 0.08 55 1012.1
20260507220020 66 179 0.0 4.0 0.00 0.28 0.08 54 1012.1
20260507214519 66 185 0.0 2.0 0.00 0.28 0.08 58 1012.1
20260507213027 65 112 0.0 4.0 0.00 0.28 0.08 55 1011.9
20260507211517 67 167 0.0 2.0 0.00 0.28 0.08 60 1011.5
20260507210015 67 164 1.0 4.0 0.00 0.32 0.08 55 1011.5
20260507204513 68 142 0.0 9.0 0.00 0.32 0.08 56 1011.5
20260507203018 69 130 0.0 0.0 0.00 0.32 0.08 52 1011.5
20260507201509 68 110 0.0 2.0 0.00 0.32 0.08 55 1011.6
20260507200006 67 278 0.0 2.0 0.00 0.37 0.08 59 1011.8
20260507194512 69 112 0.0 4.0 0.00 0.37 0.08 52 1011.8
20260507193002 69 23 1.0 5.0 0.00 0.37 0.08 56 1011.9
20260507191559 66 293 0.0 3.0 0.00 0.37 0.08 61 1012.0
20260507184558 66 167 1.0 3.0 0.00 0.37 0.08 61 1012.4
20260507183058 66 201 0.0 4.0 0.00 0.37 0.08 59 1012.2
20260507181557 66 96 0.0 6.0 0.00 0.37 0.08 60 1012.2
20260507180054 66 105 0.0 4.0 0.00 0.37 0.08 64 1012.2
20260507174558 64 167 1.0 5.0 0.00 0.37 0.08 68 1012.3
20260507173125 64 345 0.0 4.0 0.00 0.37 0.08 72 1012.8
20260507171554 64 141 0.0 4.0 0.00 0.37 0.08 65 1012.7
20260507170051 65 146 0.0 3.0 0.00 0.37 0.08 66 1012.7
20260507164549 63 146 1.0 6.0 0.00 0.37 0.08 67 1012.8
20260507163045 62 342 0.0 4.0 0.00 0.37 0.08 76 1012.8
20260507161548 61 184 0.0 5.0 0.00 0.37 0.08 78 1013.0
20260507160038 59 171 0.0 3.0 0.00 0.37 0.08 83 1013.0
20260507154533 57 148 0.0 4.0 0.00 0.37 0.08 86 1012.8
20260507153033 56 137 0.0 0.0 0.00 0.37 0.08 89 1012.9
20260507151532 55 113 0.0 0.0 0.00 0.37 0.08 89 1012.8
20260507150038 55 79 0.0 1.0 0.00 0.43 0.08 90 1012.7
20260507144531 55 127 0.0 0.0 0.00 0.43 0.08 90 1012.8
20260507143033 54 136 0.0 2.0 0.00 0.43 0.08 89 1012.9
20260507141537 54 224 0.0 3.0 0.00 0.43 0.08 90 1012.4
20260507140026 54 156 0.0 2.0 0.00 0.63 0.08 90 1012.3
20260507134524 54 228 0.0 3.0 0.00 0.63 0.08 91 1012.3
20260507133033 54 68 0.0 1.0 0.00 0.63 0.08 92 1012.2
20260507131527 54 146 0.0 0.0 0.00 0.63 0.08 93 1012.1
20260507130023 54 166 0.0 0.0 0.00 0.94 0.08 93 1012.0
20260507124527 54 120 0.0 1.0 0.00 0.94 0.08 93 1012.3
20260507123028 53 226 0.0 0.0 0.00 0.94 0.08 94 1011.9
20260507121518 53 107 0.0 0.0 0.00 0.94 0.08 94 1011.8
20260507120015 53 117 0.0 0.0 0.00 1.05 0.08 95 1011.8
20260507114515 53 131 0.0 0.0 0.00 1.05 0.08 95 1011.2